Location: Moscow
(38.3171°N, 79.0889°W)
Time: 23:21:56
(UTC+00:00)

SKYMED 2 - Pass Details

Date: 07 November 2025
Orbit: 621 x 623 km, 97.9° (Epoch: 14 December)

Event Time Altitude Azimuth Distance (km) Brightness Sun altitude
Rises 22:48:37 0° 21° (NNE) 2,910 6.7 -8.0°
Reaches altitude 10° 22:50:56 10° 29° (NNE) 1,998 5.8 -8.4°
Maximum altitude 22:54:59 38° 98° (E) 961 4.1 -9.2°
Drops below altitude 10° 22:59:00 10° 167° (SSE) 1,983 6.2 -10.0°
Sets 23:01:18 0° 175° (S) 2,884 7.1 -10.4°
